[[{"header":{"parameterUnit":"m.s-1","parameterCategory":1,"la1":30.2992,"la2":30.254,"lo1":-89.0895,"lo2":-89.0443,"dy":0.0025,"dx":0.0025,"nx":19,"ny":19,"refTime":"2026-04-21T09:00:00:Z","depth":0,"parameterNumber":2,"parameterNumberName":"U-component_of_WINDS"},"data":[0,0,0,-3.6413,-3.6414,-3.647,-3.647,-3.6554,-3.6555,0,0,0,0,0,0,0,0,0,0,0,-3.6405,-3.6406,-3.6413,-3.6414,-3.647,-3.647,-3.6554,-3.6555,0,0,0,0,0,0,0,0,0,0,0,-3.6404,-3.6405,-3.6406,-3.6414,-3.647,-3.647,-3.6553,-3.6507,0,0,0,0,0,0,0,0,0,0,-3.645,-3.6451,-3.6405,-3.6407,-3.6415,-3.647,-3.647,-3.6504,-3.651,-3.6534,0,-3.656,0,-3.6559,-3.6561,-3.6562,0,0,0,-3.6407,-3.6447,-3.6455,-3.6407,-3.6415,-3.647,-3.6443,-3.6507,-3.6513,-3.6541,-3.6561,-3.6563,-3.656,-3.6562,-3.6562,-3.673,-3.6732,0,0,-3.6404,-3.6419,-3.645,-3.6459,-3.6453,-3.6441,-3.6445,-3.651,-3.6532,-3.6561,-3.6565,-3.6562,-3.6563,-3.6563,-3.6729,-3.6731,0,0,0,-3.64,-3.6417,-3.6423,-3.6456,-3.6465,-3.6443,-3.6447,-3.6529,-3.6529,-3.6566,-3.6562,-3.6563,-3.6564,-3.6728,-3.673,-3.6799,0,0,0,-3.6398,-3.6415,-3.6422,-3.6431,-3.6464,-3.6498,-3.6464,-3.6525,-3.6532,-3.6562,-3.6563,-3.6565,-3.6727,-3.6729,-3.6794,-3.6828,0,0,0,-3.6398,-3.6414,-3.6426,-3.6432,-3.6457,-3.6497,-3.6501,-3.6526,-3.653,-3.6562,-3.6565,-3.6726,-3.6729,-3.679,-3.6822,-3.6877,0,0,0,-3.6402,-3.6486,-3.6427,-3.6519,-3.6457,-3.654,-3.65,-3.6561,-3.6596,-3.6564,-3.6727,-3.673,-3.6789,-3.6818,-3.6872,-3.6925,-3.6948,0,0,-3.6516,-3.65,-3.6553,-3.6502,-3.66,-3.653,-3.6637,-3.6655,-3.6644,-3.6702,-3.6706,-3.6796,-3.6821,-3.6876,-3.7077,-3.7096,0,0,0,-3.6594,-3.6632,-3.6655,-3.669,-3.6707,-3.6723,-3.6723,-3.673,-3.6779,-3.6677,-3.6831,-3.6845,-3.6877,-3.6901,-3.6917,-3.6942,-3.6742,-3.6742,-3.6741,-3.6774,-3.6757,-3.6844,-3.6833,-3.6868,-3.6868,-3.6894,-3.6902,-3.6874,-3.6911,-3.6927,-3.7052,-3.7081,-3.7093,-3.7119,-3.6954,-3.6955,-3.6955,-3.6955,-3.6938,-3.6989,-3.6951,-3.7021,-3.7002,-3.706,-3.7063,-3.7042,-3.7092,-3.7037,-3.7064,-3.7005,-3.7114,-3.7136,-3.696,-3.6959,-3.6959,-3.6958,-3.6958,-3.7053,-3.7075,-3.7083,-3.7132,-3.7172,-3.7158,-3.7209,-3.719,-3.7172,-3.7199,-3.7214,-3.7212,-3.7208,-3.7208,-3.7208,-3.7209,-3.7209,-3.7209,-3.7209,-3.7169,-3.7176,-3.7222,-3.7248,-3.7268,-3.7292,-3.7294,-3.7313,-3.7328,-3.731,-3.731,-3.7278,-3.7129,-3.7091,-3.7216,-3.7215,-3.7214,-3.7213,-3.7213,-3.7339,-3.7298,-3.7369,-3.7389,-3.7418,-3.7459,-3.7435,-3.7475,-3.7488,-3.7514,-3.7476,-3.7369,-3.7351,-3.7338,-3.7307,-3.748,-3.748,-3.748,-3.748,-3.7435,-3.7425,-3.7493,-3.7527,-3.7559,-3.7544,-3.7624,-3.7626,-3.7622,-3.7629,-3.7601,-3.7558,-3.7546,-3.7535,-3.7518,-3.7488,-3.7704,-3.7704,-3.7704,-3.7539,-3.7531,-3.7602,-3.7599,-3.7621,-3.7639,-3.7713,-3.7753,-3.7739,-3.7713,-3.7633,-3.7624,-3.7554,-3.7533,-3.7503,-3.7477,-3.7421,0,0]},{"header":{"parameterUnit":"m.s-1","parameterCategory":1,"la1":30.2992,"la2":30.254,"lo1":-89.0895,"lo2":-89.0443,"dy":0.0025,"dx":0.0025,"nx":19,"ny":19,"refTime":"2026-04-21T09:00:00:Z","depth":0,"parameterNumber":3,"parameterNumberName":"V-component_of_WINDS"},"data":[0,0,0,2.6815,2.6816,2.6838,2.6838,2.687,2.687,0,0,0,0,0,0,0,0,0,0,0,2.6811,2.6811,2.6815,2.6816,2.6838,2.6838,2.687,2.687,0,0,0,0,0,0,0,0,0,0,0,2.6811,2.6811,2.6811,2.6816,2.6838,2.6838,2.687,2.6852,0,0,0,0,0,0,0,0,0,0,2.6829,2.6827,2.6811,2.6811,2.6816,2.6838,2.6838,2.6851,2.6853,2.6861,0,2.6869,0,2.687,2.6872,2.6873,0,0,0,2.6814,2.6826,2.683,2.6812,2.6816,2.6838,2.6828,2.6852,2.6854,2.6864,2.687,2.6871,2.6871,2.6873,2.6873,2.6928,2.6929,0,0,2.6813,2.6816,2.6828,2.6832,2.6829,2.6827,2.6828,2.6853,2.686,2.687,2.6871,2.6871,2.6873,2.6873,2.6928,2.6928,0,0,0,2.6811,2.6815,2.6819,2.683,2.6834,2.6828,2.6829,2.6859,2.686,2.6872,2.6872,2.6873,2.6874,2.6927,2.6928,2.6948,0,0,0,2.681,2.6814,2.6818,2.682,2.6834,2.6847,2.6834,2.6858,2.6861,2.6872,2.6873,2.6874,2.6927,2.6928,2.6947,2.6957,0,0,0,2.6809,2.6813,2.6818,2.682,2.683,2.6846,2.6849,2.6858,2.6861,2.6873,2.6874,2.6927,2.6928,2.6945,2.6955,2.6972,0,0,0,2.6808,2.6834,2.6818,2.6848,2.683,2.6859,2.6848,2.687,2.6882,2.6873,2.6927,2.6928,2.6945,2.6953,2.6971,2.6987,2.6995,0,0,2.6843,2.6839,2.6856,2.6842,2.6875,2.6855,2.6891,2.6899,2.6897,2.6918,2.6919,2.6947,2.6955,2.6972,2.7035,2.704,0,0,0,2.6868,2.688,2.6888,2.6901,2.6909,2.6917,2.6919,2.6923,2.694,2.6909,2.6958,2.6963,2.6973,2.698,2.6985,2.6994,2.6932,2.6932,2.6932,2.692,2.6918,2.6946,2.6946,2.6959,2.6962,2.6972,2.6977,2.697,2.6982,2.6987,2.7026,2.7035,2.7039,2.7047,2.6996,2.6996,2.6996,2.6996,2.6971,2.6988,2.6979,2.7003,2.7,2.702,2.7025,2.7019,2.7037,2.7021,2.703,2.7012,2.7045,2.7052,2.6998,2.6997,2.6997,2.6997,2.6997,2.7005,2.7012,2.7017,2.7036,2.7051,2.705,2.7068,2.7064,2.7061,2.707,2.7075,2.7075,2.7074,2.7073,2.7073,2.7073,2.7073,2.7073,2.7073,2.7038,2.7042,2.7058,2.707,2.7078,2.7089,2.7093,2.7101,2.7108,2.7104,2.7104,2.7096,2.7049,2.7037,2.7075,2.7075,2.7075,2.7075,2.7074,2.7089,2.7077,2.7102,2.7111,2.7124,2.7139,2.7135,2.7151,2.7157,2.7166,2.7156,2.7123,2.7118,2.7114,2.7104,2.7157,2.7157,2.7157,2.7157,2.7117,2.7115,2.714,2.7154,2.7167,2.7166,2.7194,2.7198,2.72,2.7203,2.7195,2.7182,2.7178,2.7176,2.717,2.7161,2.7228,2.7228,2.7228,2.7148,2.7147,2.7172,2.7175,2.7186,2.7195,2.7222,2.7237,2.7237,2.723,2.7206,2.7203,2.7182,2.7175,2.7167,2.7159,2.7142,0,0]}]]